Location: Chimay
(50.0486°N, 4.3171°E)
Time: 20:21:24
(UTC+00:00)

Cosmos 2100 Rocket - Pass Details

Date: 08 August 2020
Orbit: 957 x 1000 km, 82.9° (Epoch: 22 September)

Event Time Altitude Azimuth Distance (km) Brightness Sun altitude
Exits shadow 22:05:36 34° 178° (S) 1,537 4.5 -20.4°
Maximum altitude 22:08:29 80° 97° (E) 980 3.9 -20.6°
Drops below altitude 10° 22:14:39 10° 12° (NNE) 2,700 7.1 -21.0°
Sets 22:17:10 0° 11° (N) 3,652 7.9 -21.2°
